Tracking 28790 objects as of 19-Apr-2024
HD Live streaming from Space Station
objects crossing your sky now

TITAN 3C TRANSTAGE DEB

Track TITAN 3C TRANSTAGE DEB now!


NORAD ID: 43455
Int'l Code: 1969-013N
Perigee: 37,453.0 km
Apogee: 37,819.6 km
Inclination: 1.8 °
Period: 1,531.3 minutes
Semi major axis: 44007 km
RCS: Unknown
Launch date: February 9, 1969
Source: United States (US)
Launch site: AIR FORCE EASTERN TEST RANGE (AFETR)

Note: This is SATELLITE DEBRIS
Your satellite tracking list
Your tracking list is empty




NASA's NSSDC Master Catalog

Two Line Element Set (TLE):
1 43455U 69013N   24110.52063485 -.00000109  00000-0  00000+0 0  9991
2 43455   1.7593 229.0096 0041654 245.1730 114.2543  0.94040648 20926
Source of the keplerian elements: AFSPC